Location: Lane
(33.5226°N, 79.8788°W)
Time: 20:44:30
(UTC+00:00)

Vanguard 2 Rocket - Pass Details

Date: 10 October 2022
Orbit: 555 x 3321 km, 32.9° (Epoch: 28 November)

Event Time Altitude Azimuth Distance (km) Brightness Sun altitude
Rises 03:19:09 0° 260° (W) 7,268 11.8 -53.3°
Reaches altitude 10° 03:24:18 10° 260° (W) 6,114 11.3 -54.1°
Enters shadow 03:35:52 44° 260° (W) 3,454 9.7 -55.9°
